Regional Weather Roundup
Issued by NWS

Home | Current Version | Previous Version | Text Only | Print | Product List | Glossary Off
Versions: 1 2 3 4 5 6 7 8 9 10 11 12 13 14 15 16 17 18 19 20 21 22 23 24 25 26 27 28 29 30 31 32 33 34 35 36 37 38 39 40 41 42 43 44 45 46 47 48 49 50

000
ASUS43 KBIS 200002
RWRND

NORTH DAKOTA REGIONAL WEATHER ROUNDUP
NATIONAL WEATHER SERVICE BISMARCK ND
700 PM CDT THU OCT 19 2017

NOTE: "FAIR" INDICATES FEW OR NO CLOUDS BELOW 12,000 FEET WITH NO
SIGNIFICANT WEATHER AND/OR OBSTRUCTIONS TO VISIBILITY.


NDZ001>003-009>011-017-200100-
NORTHWEST NORTH DAKOTA

CITY           SKY/WX    TMP DP  RH WIND       PRES   REMARKS
WILLISTON      CLEAR     69  34  27 S3        29.62F
6HR MIN TEMP:  65; 6HR MAX TEMP:  79;

MINOT          CLEAR     69  34  27 S6        29.64F
MINOT AFB      CLEAR     62  33  33 S8        29.62F
$$

NDZ018>021-031>035-040>046-200100-
SOUTHWEST NORTH DAKOTA

CITY           SKY/WX    TMP DP  RH WIND       PRES   REMARKS
BISMARCK       CLEAR     62  39  42 S10       29.70F
6HR MIN TEMP:  62; 6HR MAX TEMP:  80;

DICKINSON      CLEAR     66  31  27 SE6       29.67F
GARRISON         N/A     65  36  34 CALM      29.67F
6HR MIN TEMP:  64; 6HR MAX TEMP:  78;

HETTINGER ARPT CLOUDY    66  28  24 SE7       29.72F
$$

NDZ004>008-012>016-024-026-027-054-200100-
NORTHEAST NORTH DAKOTA

CITY           SKY/WX    TMP DP  RH WIND       PRES   REMARKS
GRAND FORKS    PTCLDY    62  41  46 S12       29.71S
GRND FRKS AFB  CLEAR     62  39  43 S13       29.71F
DEVILS LAKE    CLEAR     65  38  36 S9        29.70S
$$

NDZ022-023-025-028>030-036>039-047>053-200100-
SOUTHEAST NORTH DAKOTA

CITY           SKY/WX    TMP DP  RH WIND       PRES   REMARKS
FARGO          CLEAR     63  42  46 S7        29.76S
6HR MIN TEMP:  62; 6HR MAX TEMP:  75;

JAMESTOWN      CLEAR     60  41  49 S6        29.74S
$$





USA.gov is the U.S. government's official web portal to all federal, state and local government web resources and services.